Date,TemperatureHighF,TemperatureAvgF,TemperatureLowF,DewpointHighF,DewpointAvgF,DewpointLowF,HumidityHigh,HumidityAvg,HumidityLow,PressureMaxIn,PressureMinIn,WindSpeedMaxMPH,WindSpeedAvgMPH,GustSpeedMaxMPH,PrecipitationSumIn
2013-8-1,89.8,77.9,69.3,78.0,68.6,64.0,99,77,44,29.97,29.92,6,0,12,0.00
2013-8-2,90.3,76.1,64.9,74.8,64.6,55.4,99,72,34,30.04,29.95,4,0,6,0.00
2013-8-3,88.9,77.1,66.7,73.2,68.8,65.8,99,78,49,30.02,29.95,7,0,11,0.00
2013-8-4,88.5,78.8,68.0,77.1,65.9,57.9,99,69,37,30.06,29.97,3,0,6,0.00
2013-8-5,92.3,76.6,63.0,67.7,62.0,53.5,99,64,30,30.05,29.95,4,1,8,0.00
2013-8-6,91.8,78.3,68.5,74.5,68.2,63.5,99,74,43,30.00,29.93,4,0,8,0.00
2013-8-7,90.7,78.5,73.2,77.7,74.1,70.7,99,88,55,30.02,29.92,4,0,8,0.05
2013-8-8,89.2,77.5,71.8,79.7,75.0,71.5,99,92,68,30.03,29.95,5,0,8,0.14
2013-8-9,94.8,79.8,70.2,77.4,73.5,69.9,99,84,50,30.05,29.96,4,0,8,0.01
2013-8-10,94.6,78.0,71.1,80.4,73.9,68.9,99,89,50,30.10,30.03,7,1,13,1.10
2013-8-11,92.8,76.3,69.1,80.3,72.9,68.8,99,91,52,30.13,30.04,3,0,7,0.00
2013-8-12,89.8,78.1,70.3,79.6,73.8,70.0,99,88,62,30.09,29.95,4,0,9,0.01
2013-8-13,83.8,75.2,72.5,78.7,74.2,72.2,99,97,71,29.96,29.88,6,0,13,0.00
2013-8-14,83.3,72.6,62.8,70.2,61.5,53.0,99,72,38,30.05,29.92,4,1,8,0.00
2013-8-15,85.3,71.4,60.4,64.6,58.5,52.4,82,65,43,30.07,29.98,5,1,8,0.00
2013-8-16,84.9,72.5,63.5,66.6,61.2,56.8,98,70,40,30.09,30.00,6,1,11,0.00
2013-8-17,76.3,70.6,65.5,68.6,62.1,57.6,99,75,58,30.13,30.05,8,1,12,0.20
2013-8-18,87.3,72.7,66.7,74.2,67.9,63.5,99,87,51,30.16,30.08,4,0,9,0.06
2013-8-19,90.0,74.5,67.5,75.0,69.2,65.6,99,86,46,30.14,30.04,4,0,7,0.06
2013-8-20,93.9,78.4,67.3,76.0,69.7,65.5,99,78,42,30.16,30.06,3,0,6,0.00
2013-8-21,85.8,74.9,69.8,78.4,72.8,69.5,99,94,66,30.19,30.10,4,0,7,0.18
2013-8-22,93.4,78.0,69.4,78.4,71.3,68.4,99,83,46,30.15,30.03,3,0,7,0.00
2013-8-23,92.5,74.8,68.9,76.9,71.8,63.9,99,92,50,30.07,29.99,10,0,14,0.07
2013-8-24,90.3,76.9,66.9,72.3,65.7,56.8,99,73,35,30.19,30.07,5,1,8,0.00
2013-8-25,88.3,74.9,62.6,62.5,58.8,54.2,86,60,32,30.34,30.22,4,1,8,0.00
2013-8-26,91.9,74.0,60.8,69.0,63.5,59.9,99,74,36,30.29,30.11,3,0,6,0.00
2013-8-27,91.0,76.7,65.5,72.7,69.0,65.2,99,80,49,30.13,30.01,3,0,5,0.00
2013-8-28,94.8,80.5,70.2,76.7,71.2,66.5,99,77,44,30.05,29.95,5,0,9,0.00
2013-8-29,96.3,81.7,72.7,77.5,72.6,66.4,99,77,43,29.99,29.91,4,0,8,0.00
2013-8-30,97.2,81.0,69.3,77.1,70.9,66.8,99,76,38,30.00,29.88,4,0,6,0.00
2013-8-31,95.4,79.9,70.9,80.6,73.3,67.3,99,83,48,29.95,29.82,7,1,13,0.35